Powrót do katalogu

STARLINK-32261

AktywnyŁącznośćVLEO
NORAD 61530·PAYLOAD·🇺🇸 United States

Wystrzelony Oct 15, 2024 z Cape Canaveral Space Force Station

Loading…

Następne Przeloty (najbliższe 24 godziny)

TLE

ŚwieżeSource: CelesTrak SupGP

Epoka: Sep 14, 2026, 21:31 UTC

1 61530C 24183X   26257.89701389 -.00016966  00000+0 -54557-3 0  2575
2 61530  53.1581 342.3713 0001150  91.8598  76.2418 15.31710733    10

Śledź STARLINK-32261 w czasie rzeczywistym z AllMySat

Download on the App Store